| time (UTC) | temp C | wind direction | speed KPH | gust KPH | rain 1hr cm | rain 24hr cm | rain mn cm | humidity % | barometer mb |
| 20260509090022 | 10 | 158 | 0.0 | 1.6 | 0.00 | 0.00 | 0.00 | 80 | 979.7 |
| 20260509085047 | 10 | 163 | 1.6 | 3.2 | 0.00 | 0.00 | 0.00 | 78 | 979.8 |
| 20260509084052 | 10 | 156 | 3.2 | 4.8 | 0.00 | 0.00 | 0.00 | 77 | 980.0 |
| 20260509083018 | 10 | 153 | 1.6 | 3.2 | 0.00 | 0.00 | 0.00 | 76 | 980.1 |
| 20260509082024 | 10 | 180 | 1.6 | 3.2 | 0.00 | 0.00 | 0.00 | 76 | 980.3 |
| 20260509081028 | 10 | 170 | 0.0 | 4.8 | 0.00 | 0.00 | 0.00 | 75 | 980.3 |
| 20260509080035 | 10 | 156 | 1.6 | 3.2 | 0.00 | 0.00 | 0.00 | 75 | 980.4 |
| 20260509075020 | 10 | 68 | 0.0 | 1.6 | 0.00 | 0.00 | 0.00 | 73 | 980.4 |
| 20260509074025 | 10 | 162 | 1.6 | 4.8 | 0.00 | 0.00 | 0.00 | 72 | 980.6 |
| 20260509073030 | 10 | 115 | 0.0 | 3.2 | 0.00 | 0.00 | 0.00 | 69 | 980.7 |
| 20260509072017 | 10 | 0.0 | 0.0 | 0.00 | 0.00 | 0.00 | 66 | 980.8 | |
| 20260509071022 | 10 | 198 | 0.0 | 3.2 | 0.00 | 0.00 | 0.00 | 64 | 980.9 |
| 20260509070046 | 10 | 154 | 1.6 | 3.2 | 0.00 | 0.00 | 0.00 | 62 | 980.8 |
| 20260509065031 | 10 | 178 | 1.6 | 4.8 | 0.00 | 0.00 | 0.00 | 59 | 981.1 |
| 20260509064058 | 10 | 135 | 1.6 | 6.4 | 0.00 | 0.00 | 0.00 | 57 | 981.2 |
| 20260509063023 | 11 | 159 | 3.2 | 6.4 | 0.00 | 0.00 | 0.00 | 53 | 981.2 |
| 20260509062028 | 11 | 189 | 4.8 | 6.4 | 0.00 | 0.00 | 0.00 | 47 | 981.1 |
| 20260509061015 | 10 | 157 | 3.2 | 6.4 | 0.00 | 0.00 | 0.00 | 42 | 981.4 |
| 20260509060020 | 10 | 143 | 1.6 | 4.8 | 0.00 | 0.00 | 0.00 | 41 | 981.4 |
| 20260509055025 | 10 | 0.0 | 0.0 | 0.00 | 0.00 | 0.00 | 40 | 981.6 | |
| 20260509054023 | 10 | 170 | 1.6 | 4.8 | 0.00 | 0.00 | 0.00 | 38 | 981.5 |
| 20260509053056 | 10 | 162 | 1.6 | 4.8 | 0.00 | 0.00 | 0.00 | 38 | 981.5 |
| 20260509052021 | 11 | 169 | 3.2 | 4.8 | 0.00 | 0.00 | 0.00 | 38 | 981.4 |
| 20260509051020 | 10 | 166 | 1.6 | 4.8 | 0.00 | 0.00 | 0.00 | 38 | 981.5 |
| 20260509050019 | 10 | 160 | 3.2 | 6.4 | 0.00 | 0.00 | 0.00 | 39 | 981.7 |
| 20260509045018 | 10 | 166 | 3.2 | 4.8 | 0.00 | 0.00 | 0.00 | 39 | 981.7 |
| 20260509044016 | 10 | 141 | 3.2 | 4.8 | 0.00 | 0.00 | 0.00 | 40 | 981.8 |
| 20260509043015 | 10 | 144 | 1.6 | 3.2 | 0.00 | 0.00 | 0.00 | 40 | 981.8 |
| 20260509042032 | 10 | 0.0 | 0.0 | 0.00 | 0.00 | 0.00 | 40 | 981.9 | |
| 20260509041019 | 10 | 0.0 | 0.0 | 0.00 | 0.00 | 0.00 | 41 | 982.0 | |
| 20260509040024 | 10 | 0.0 | 0.0 | 0.00 | 0.00 | 0.00 | 41 | 982.2 | |
| 20260509035029 | 10 | 0.0 | 0.0 | 0.00 | 0.00 | 0.00 | 40 | 982.2 | |
| 20260509034016 | 10 | 0.0 | 0.0 | 0.00 | 0.00 | 0.00 | 39 | 982.3 | |
| 20260509033020 | 10 | 0.0 | 0.0 | 0.00 | 0.00 | 0.00 | 39 | 982.3 | |
| 20260509032025 | 10 | 0.0 | 0.0 | 0.00 | 0.00 | 0.00 | 37 | 982.4 | |
| 20260509031050 | 11 | 0.0 | 0.0 | 0.00 | 0.00 | 0.00 | 36 | 982.6 | |
| 20260509030017 | 11 | 158 | 0.0 | 1.6 | 0.00 | 0.00 | 0.00 | 35 | 982.7 |
| 20260509025022 | 11 | 144 | 0.0 | 3.2 | 0.00 | 0.00 | 0.00 | 35 | 982.9 |
| 20260509024026 | 11 | 135 | 1.6 | 3.2 | 0.00 | 0.00 | 0.00 | 35 | 982.9 |
| 20260509023031 | 11 | 0.0 | 0.0 | 0.00 | 0.00 | 0.00 | 35 | 982.9 | |
| 20260509022019 | 11 | 0.0 | 0.0 | 0.00 | 0.00 | 0.00 | 35 | 982.8 | |
| 20260509021023 | 11 | 0.0 | 0.0 | 0.00 | 0.00 | 0.00 | 35 | 982.7 | |
| 20260509020028 | 12 | 158 | 0.0 | 1.6 | 0.00 | 0.00 | 0.00 | 34 | 982.7 |
| 20260509015015 | 12 | 0.0 | 0.0 | 0.00 | 0.00 | 0.00 | 34 | 982.7 | |
| 20260509014020 | 11 | 0.0 | 0.0 | 0.00 | 0.00 | 0.00 | 34 | 982.7 | |
| 20260509013025 | 12 | 0.0 | 0.0 | 0.00 | 0.00 | 0.00 | 34 | 982.6 | |
| 20260509012110 | 12 | 0.0 | 0.0 | 0.00 | 0.00 | 0.00 | 34 | 982.6 | |
| 20260509011016 | 13 | 0.0 | 0.0 | 0.00 | 0.00 | 0.00 | 32 | 982.7 | |
| 20260509010021 | 13 | 0.0 | 0.0 | 0.00 | 0.00 | 0.00 | 31 | 982.7 | |
| 20260509005106 | 14 | 113 | 0.0 | 1.6 | 0.00 | 0.00 | 0.00 | 31 | 982.8 |
| 20260509004031 | 15 | 203 | 0.0 | 1.6 | 0.00 | 0.00 | 0.00 | 30 | 982.8 |
| 20260509003018 | 15 | 139 | 1.6 | 4.8 | 0.00 | 0.00 | 0.00 | 28 | 982.8 |
| 20260509002043 | 16 | 192 | 0.0 | 3.2 | 0.00 | 0.00 | 0.00 | 27 | 982.9 |
| 20260509001027 | 16 | 172 | 1.6 | 4.8 | 0.00 | 0.00 | 0.00 | 27 | 983.0 |
| 20260509000032 | 17 | 257 | 1.6 | 4.8 | 0.00 | 0.00 | 0.00 | 26 | 983.1 |
| 20260508235019 | 16 | 207 | 3.2 | 6.4 | 0.00 | 0.00 | 0.00 | 26 | 983.2 |
| 20260508234025 | 17 | 243 | 1.6 | 4.8 | 0.00 | 0.00 | 0.00 | 25 | 983.3 |
| 20260508233030 | 18 | 265 | 4.8 | 6.4 | 0.00 | 0.00 | 0.00 | 26 | 983.3 |
| 20260508232016 | 17 | 251 | 3.2 | 6.4 | 0.00 | 0.00 | 0.00 | 27 | 983.3 |
| 20260508231041 | 17 | 255 | 4.8 | 9.7 | 0.00 | 0.00 | 0.00 | 26 | 983.3 |
| 20260508230026 | 18 | 259 | 6.4 | 8.0 | 0.00 | 0.00 | 0.00 | 25 | 983.3 |
| 20260508225030 | 18 | 268 | 6.4 | 8.0 | 0.00 | 0.00 | 0.00 | 26 | 983.3 |
| 20260508224017 | 18 | 267 | 4.8 | 8.0 | 0.00 | 0.00 | 0.00 | 26 | 983.3 |
| 20260508223022 | 18 | 266 | 6.4 | 9.7 | 0.00 | 0.00 | 0.00 | 26 | 983.3 |
| 20260508222027 | 18 | 264 | 4.8 | 9.7 | 0.00 | 0.00 | 0.00 | 26 | 983.4 |
| 20260508221032 | 18 | 293 | 4.8 | 9.7 | 0.00 | 0.00 | 0.00 | 25 | 983.3 |
| 20260508220019 | 18 | 267 | 6.4 | 11.3 | 0.00 | 0.00 | 0.00 | 24 | 983.4 |
| 20260508215024 | 18 | 266 | 8.0 | 11.3 | 0.00 | 0.00 | 0.00 | 24 | 983.4 |
| 20260508214028 | 19 | 316 | 4.8 | 9.7 | 0.00 | 0.00 | 0.00 | 24 | 983.5 |
| 20260508213036 | 19 | 267 | 6.4 | 8.0 | 0.00 | 0.00 | 0.00 | 24 | 983.5 |
| 20260508212020 | 19 | 283 | 4.8 | 8.0 | 0.00 | 0.00 | 0.00 | 24 | 983.6 |
| 20260508211025 | 20 | 253 | 6.4 | 12.9 | 0.00 | 0.00 | 0.00 | 24 | 983.7 |
| 20260508210024 | 20 | 293 | 6.4 | 9.7 | 0.00 | 0.00 | 0.00 | 24 | 983.7 |
| 20260508205017 | 19 | 261 | 4.8 | 11.3 | 0.00 | 0.00 | 0.00 | 25 | 983.9 |
| 20260508204022 | 19 | 234 | 6.4 | 11.3 | 0.00 | 0.00 | 0.00 | 25 | 983.9 |
| 20260508203021 | 19 | 297 | 4.8 | 11.3 | 0.00 | 0.00 | 0.00 | 24 | 984.0 |
| 20260508202020 | 19 | 235 | 6.4 | 9.7 | 0.00 | 0.00 | 0.00 | 24 | 984.1 |
| 20260508201019 | 19 | 280 | 6.4 | 9.7 | 0.00 | 0.00 | 0.00 | 24 | 984.2 |
| 20260508200018 | 19 | 285 | 6.4 | 9.7 | 0.00 | 0.00 | 0.00 | 25 | 984.4 |
| 20260508195016 | 19 | 272 | 6.4 | 11.3 | 0.00 | 0.00 | 0.00 | 24 | 984.5 |
| 20260508194015 | 19 | 276 | 6.4 | 11.3 | 0.00 | 0.00 | 0.00 | 24 | 984.6 |
| 20260508193020 | 18 | 245 | 6.4 | 12.9 | 0.00 | 0.00 | 0.00 | 24 | 984.6 |
| 20260508192025 | 18 | 284 | 4.8 | 6.4 | 0.00 | 0.00 | 0.00 | 25 | 984.6 |
| 20260508191030 | 18 | 274 | 8.0 | 11.3 | 0.00 | 0.00 | 0.00 | 24 | 984.7 |
| 20260508190017 | 18 | 311 | 6.4 | 12.9 | 0.00 | 0.00 | 0.00 | 24 | 984.9 |
| 20260508185021 | 18 | 274 | 8.0 | 12.9 | 0.00 | 0.00 | 0.00 | 24 | 985.0 |
| 20260508184027 | 18 | 279 | 6.4 | 12.9 | 0.00 | 0.00 | 0.00 | 24 | 985.1 |
| 20260508183031 | 18 | 281 | 6.4 | 11.3 | 0.00 | 0.00 | 0.00 | 25 | 985.1 |
| 20260508182038 | 18 | 335 | 4.8 | 8.0 | 0.00 | 0.00 | 0.00 | 25 | 985.2 |
| 20260508181023 | 18 | 268 | 4.8 | 8.0 | 0.00 | 0.00 | 0.00 | 25 | 985.3 |
| 20260508180028 | 18 | 241 | 6.4 | 9.7 | 0.00 | 0.00 | 0.00 | 25 | 985.5 |
| 20260508175015 | 18 | 266 | 6.4 | 11.3 | 0.00 | 0.00 | 0.00 | 26 | 985.8 |
| 20260508174020 | 18 | 353 | 4.8 | 8.0 | 0.00 | 0.00 | 0.00 | 27 | 985.9 |
| 20260508173025 | 18 | 41 | 3.2 | 8.0 | 0.00 | 0.00 | 0.00 | 27 | 985.9 |
| 20260508172029 | 18 | 294 | 6.4 | 11.3 | 0.00 | 0.00 | 0.00 | 27 | 986.1 |
| 20260508171016 | 18 | 275 | 6.4 | 11.3 | 0.00 | 0.00 | 0.00 | 26 | 986.3 |
| 20260508170021 | 18 | 236 | 4.8 | 8.0 | 0.00 | 0.00 | 0.00 | 29 | 986.6 |
| 20260508165026 | 18 | 226 | 4.8 | 8.0 | 0.00 | 0.00 | 0.00 | 28 | 986.8 |
| 20260508164031 | 17 | 244 | 3.2 | 8.0 | 0.00 | 0.00 | 0.00 | 28 | 986.8 |
| 20260508163018 | 17 | 266 | 4.8 | 8.0 | 0.00 | 0.00 | 0.00 | 28 | 986.8 |
| 20260508162023 | 17 | 326 | 6.4 | 9.7 | 0.00 | 0.00 | 0.00 | 28 | 986.9 |
| 20260508161108 | 17 | 273 | 6.4 | 9.7 | 0.00 | 0.00 | 0.00 | 29 | 986.9 |
| 20260508160033 | 16 | 182 | 3.2 | 4.8 | 0.00 | 0.00 | 0.00 | 32 | 987.0 |
| 20260508155019 | 16 | 221 | 4.8 | 8.0 | 0.00 | 0.00 | 0.00 | 34 | 987.0 |
| 20260508154044 | 16 | 263 | 6.4 | 9.7 | 0.00 | 0.00 | 0.00 | 36 | 987.1 |
| 20260508153029 | 16 | 248 | 3.2 | 6.4 | 0.00 | 0.00 | 0.00 | 36 | 987.1 |
| 20260508152016 | 16 | 223 | 3.2 | 6.4 | 0.00 | 0.00 | 0.00 | 39 | 987.2 |
| 20260508151021 | 16 | 265 | 4.8 | 9.7 | 0.00 | 0.00 | 0.00 | 35 | 987.3 |
| 20260508150026 | 15 | 218 | 3.2 | 4.8 | 0.00 | 0.00 | 0.00 | 41 | 987.3 |
| 20260508145051 | 15 | 197 | 3.2 | 6.4 | 0.00 | 0.00 | 0.00 | 39 | 987.4 |
| 20260508144043 | 15 | 244 | 6.4 | 8.0 | 0.00 | 0.00 | 0.00 | 38 | 987.4 |
| 20260508143028 | 15 | 173 | 3.2 | 6.4 | 0.00 | 0.00 | 0.00 | 43 | 987.4 |
| 20260508142032 | 15 | 254 | 3.2 | 6.4 | 0.00 | 0.00 | 0.00 | 44 | 987.5 |
| 20260508141019 | 14 | 153 | 3.2 | 4.8 | 0.00 | 0.00 | 0.00 | 43 | 987.6 |
| 20260508140025 | 14 | 6 | 3.2 | 6.4 | 0.00 | 0.00 | 0.00 | 50 | 987.5 |
| 20260508135029 | 13 | 137 | 3.2 | 4.8 | 0.00 | 0.00 | 0.00 | 50 | 987.6 |
| 20260508134016 | 12 | 130 | 3.2 | 6.4 | 0.00 | 0.00 | 0.00 | 54 | 987.7 |
| 20260508133021 | 13 | 142 | 3.2 | 4.8 | 0.00 | 0.00 | 0.00 | 53 | 987.7 |
| 20260508132026 | 15 | 128 | 1.6 | 3.2 | 0.00 | 0.00 | 0.00 | 51 | 987.7 |
| 20260508131031 | 15 | 295 | 1.6 | 3.2 | 0.00 | 0.00 | 0.00 | 50 | 987.9 |
| 20260508130018 | 15 | 282 | 1.6 | 3.2 | 0.00 | 0.00 | 0.00 | 49 | 988.0 |
| 20260508125022 | 13 | 270 | 0.0 | 3.2 | 0.00 | 0.00 | 0.00 | 54 | 988.0 |
| 20260508124027 | 12 | 89 | 1.6 | 3.2 | 0.00 | 0.00 | 0.00 | 55 | 987.9 |
| 20260508123032 | 11 | 164 | 1.6 | 3.2 | 0.00 | 0.00 | 0.00 | 59 | 987.9 |
| 20260508122019 | 10 | 158 | 0.0 | 3.2 | 0.00 | 0.00 | 0.00 | 62 | 987.8 |
| 20260508121024 | 8 | 135 | 0.0 | 1.6 | 0.00 | 0.00 | 0.00 | 65 | 987.7 |
| 20260508120028 | 7 | 203 | 0.0 | 3.2 | 0.00 | 0.00 | 0.00 | 68 | 987.6 |
| 20260508115015 | 6 | 129 | 1.6 | 3.2 | 0.00 | 0.00 | 0.00 | 72 | 987.6 |
| 20260508114021 | 5 | 156 | 1.6 | 3.2 | 0.00 | 0.00 | 0.00 | 76 | 987.5 |
| 20260508113046 | 2 | 158 | 0.0 | 1.6 | 0.00 | 0.00 | 0.00 | 85 | 987.4 |
| 20260508112030 | 2 | 0.0 | 0.0 | 0.00 | 0.00 | 0.00 | 87 | 987.5 | |
| 20260508111017 | 1 | 0.0 | 0.0 | 0.00 | 0.00 | 0.00 | 87 | 987.4 | |
| 20260508110144 | 1 | 0.0 | 0.0 | 0.00 | 0.00 | 0.00 | 88 | 987.3 | |
| 20260508105027 | 1 | 0.0 | 0.0 | 0.00 | 0.00 | 0.00 | 87 | 987.1 | |
| 20260508104019 | 1 | 0.0 | 0.0 | 0.00 | 0.00 | 0.00 | 87 | 987.2 | |
| 20260508103023 | 1 | 0.0 | 0.0 | 0.00 | 0.00 | 0.00 | 87 | 987.2 | |
| 20260508102029 | 1 | 0.0 | 0.0 | 0.00 | 0.00 | 0.00 | 86 | 987.2 | |
| 20260508101015 | 1 | 0.0 | 0.0 | 0.00 | 0.00 | 0.00 | 86 | 987.3 | |
| 20260508100020 | 1 | 0.0 | 0.0 | 0.00 | 0.00 | 0.00 | 86 | 987.3 | |
| 20260508095025 | 1 | 0.0 | 0.0 | 0.00 | 0.00 | 0.00 | 85 | 987.3 | |
| 20260508094024 | 1 | 0.0 | 0.0 | 0.00 | 0.00 | 0.00 | 84 | 987.4 | |
| 20260508093016 | 1 | 0.0 | 0.0 | 0.00 | 0.00 | 0.00 | 83 | 987.5 | |
| 20260508092021 | 1 | 0.0 | 0.0 | 0.00 | 0.00 | 0.00 | 84 | 987.4 | |
| 20260508091021 | 2 | 0.0 | 0.0 | 0.00 | 0.00 | 0.00 | 80 | 987.5 |